Theta_e
300 301 301 302 302 301 300 299 300 299 299 299 300 300 301 301 301 301 301 302 301 300 302 302 303 304 304 304 303 303 302 301 297 299 301 300 297 295 295 294 294 294 295
296 296 296 296 295 294 294 294 295 295 296 295 296 296 296 296 296 296 296 296 296 296 296 296 296 299 299 300 301 300 300 300 298 296 298 299 296 293 294 293 293 292 292
294 294 293 293 292 292 292 293 293 293 293 293 293 292 292 292 292 292 292 292 292 292 293 292 295 295 293 294 296 296 297 298 298 296 295 298 298 288 289 288 289 290 290
293 292 291 290 291 291 291 291 290 291 290 290 290 289 289 289 288 287 287 289 289 290 290 291 292 292 291 291 291 292 293 293 293 293 293 293 294 289 285 286 288 287 288
291 290 290 290 290 289 288 288 287 287 287 286 286 286 286 287 286 286 285 286 286 287 287 288 289 289 289 290 289 289 289 289 290 290 290 291 291 291 285 288 285 289 290
289 288 288 288 286 286 285 285 286 285 286 286 286 285 285 286 291 291 289 285 284 285 285 285 285 285 288 290 290 291 290 287 286 287 288 287 288 289 290 290 289 287 286
285 285 284 284 284 284 284 285 284 284 285 284 284 284 284 284 289 290 289 284 284 284 285 286 286 287 287 287 288 289 288 289 290 288 286 286 286 288 288 287 287 287 286
284 283 283 283 282 283 283 283 283 283 283 283 282 281 282 283 288 289 288 284 283 284 284 286 286 286 286 286 286 286 286 286 286 287 287 287 288 288 288 287 287 287 287
282 282 282 281 280 281 280 281 281 280 280 279 281 280 279 282 287 288 287 282 284 284 285 285 285 285 286 287 285 284 284 285 288 290 290 290 291 291 291 288 285 284 283
280 281 281 281 279 277 279 278 279 278 281 281 281 279 278 279 285 287 286 284 283 283 284 284 285 284 286 286 284 283 282 283 285 286 286 287 288 287 288 286 285 282 282
278 278 278 277 276 277 277 277 275 275 277 274 277 277 277 278 279 286 287 285 283 283 283 283 283 286 286 287 287 284 284 286 286 284 284 283 284 285 285 285 285 283 282
275 275 273 272 274 276 271 271 271 271 270 272 271 273 276 276 283 286 286 287 287 284 283 284 284 286 287 287 286 286 286 286 283 282 281 281 282 283 283 282 283 283 280
269 269 268 269 271 271 268 268 270 269 269 271 274 277 278 280 283 286 286 287 287 285 284 285 287 287 287 285 285 285 284 283 282 281 280 282 280 278 277 277 276 273 274
266 267 268 268 268 268 271 271 268 268 268 270 273 276 278 279 281 283 284 285 285 285 285 285 285 287 286 285 283 283 283 282 281 281 281 281 280 279 272 273 272 272 271
266 268 268 268 266 268 271 268 271 271 271 270 277 277 277 277 280 284 284 284 285 284 284 283 283 282 281 281 281 281 281 282 281 281 280 279 279 275 271 272 273 271 271
266 267 266 266 266 268 269 270 275 277 279 280 280 280 280 282 284 284 285 285 285 285 282 280 281 281 280 280 279 279 280 280 280 280 279 279 278 271 269 270 272 271 272
259 262 263 265 264 264 264 264 266 270 275 277 278 280 281 282 283 283 283 283 283 282 280 281 281 280 280 279 279 279 278 279 280 279 279 278 278 270 269 269 271 271 272
254 260 258 260 260 260 261 262 262 265 268 270 275 278 280 282 281 281 281 278 271 273 273 273 272 273 273 274 275 277 278 278 278 278 278 277 277 270 268 270 272 270 271
256 258 258 259 258 259 260 261 263 267 269 270 270 274 274 276 278 279 276 265 264 263 268 269 270 269 269 270 271 272 274 276 275 275 274 273 274 271 270 272 273 274 272
255 259 259 257 257 258 259 261 262 263 268 269 269 269 268 264 264 262 260 259 260 262 265 265 267 267 266 266 267 268 271 271 270 271 270 271 273 274 273 272 274 273 272
255 256 260 256 256 257 258 259 261 262 266 267 268 264 274 266 264 263 260 259 258 261 263 263 265 264 265 264 265 265 267 267 266 267 269 269 270 270 272 272 272 272 272
255 255 255 255 257 257 257 256 259 263 261 262 263 259 271 260 261 261 260 261 262 262 263 263 263 263 264 263 263 263 264 263 263 264 264 267 268 268 269 270 270 270 269
255 255 255 255 255 257 256 256 257 259 257 256 259 260 256 256 258 261 260 261 261 262 262 262 262 262 262 262 263 262 262 262 262 262 261 263 265 265 266 266 266 266 266
254 254 254 254 254 254 254 256 255 258 257 256 256 256 256 256 261 262 261 261 260 262 262 262 262 261 261 261 261 261 261 261 261 260 260 261 262 262 262 261 262 261 262
252 253 253 253 252 253 253 254 256 254 255 256 257 255 256 258 261 262 261 262 261 262 262 262 262 262 261 261 261 261 261 262 262 262 259 259 259 259 257 257 256 257 256
252 252 252 252 252 252 253 255 255 255 255 256 257 256 257 257 258 261 262 261 261 260 260 260 261 260 260 260 260 262 262 264 264 264 260 258 256 255 254 253 253 253 253
Wind_Speed
7 7 8 8 9 9 8 7 6 6 6 6 6 6 6 6 6 5 5 3 2 3 4 5 5 5 5 4 4 5 7 8 14 12 8 5 4 7 7 7 8 9 8
6 7 7 7 8 8 7 7 7 7 6 7 6 6 6 6 5 6 5 5 5 5 5 5 6 4 7 6 5 8 8 7 9 21 11 10 7 6 6 7 7 7 9
6 7 8 8 8 7 7 7 7 6 7 7 6 6 6 6 6 6 5 5 5 6 6 6 8 8 7 6 7 8 8 7 8 11 15 10 9 2 5 5 7 8 7
7 8 8 7 7 6 6 7 7 6 6 6 6 6 6 6 6 6 6 6 5 5 5 6 8 8 9 10 8 9 8 8 9 10 12 12 9 2 2 5 9 5 10
8 8 7 6 6 6 6 6 6 6 6 6 6 7 6 5 4 6 6 6 6 6 6 6 6 8 13 13 9 10 9 9 8 9 11 12 11 9 6 4 7 9 9
8 7 6 6 6 6 6 6 6 6 6 6 6 5 5 4 8 8 7 5 6 6 7 6 5 6 11 16 18 17 15 11 11 9 11 12 14 10 8 10 10 9 12
7 6 6 6 6 6 6 6 6 6 5 4 4 5 6 5 10 11 10 4 6 6 6 9 10 7 11 10 14 19 17 16 18 13 14 13 15 12 11 12 12 11 12
7 6 6 6 5 5 5 5 5 3 4 4 4 4 5 6 13 14 13 5 5 6 6 8 9 11 10 11 12 15 14 11 10 9 12 16 14 13 11 11 13 13 11
6 5 4 3 3 4 5 5 4 3 4 3 3 6 5 8 15 16 12 4 7 10 10 11 11 11 15 19 13 13 14 13 11 17 20 24 25 25 21 12 11 10 11
4 4 4 3 5 5 4 4 2 2 5 5 7 5 6 7 13 15 12 8 10 8 10 10 14 11 20 21 12 11 14 16 12 11 9 11 14 14 19 12 10 12 10
3 2 5 5 3 3 3 2 3 4 3 4 5 5 6 5 6 14 15 9 7 8 9 9 9 16 20 21 21 10 12 15 13 9 10 10 9 9 8 7 7 8 10
5 5 4 3 3 3 4 3 4 3 3 5 4 4 3 4 8 13 17 16 15 7 9 8 9 18 22 21 17 19 20 17 9 9 7 8 9 6 6 6 7 5 4
4 3 3 3 3 3 3 4 3 3 2 4 4 6 5 4 4 12 15 17 15 9 9 13 22 21 20 12 15 19 12 6 6 6 7 7 2 5 4 3 3 3 5
1 3 3 2 3 3 2 2 2 3 3 2 5 7 8 8 8 4 4 7 11 9 11 10 14 17 12 12 7 8 5 5 6 7 6 6 3 4 3 2 1 2 2
1 2 1 2 2 2 2 2 2 3 3 4 7 8 9 10 9 16 15 10 7 9 13 7 8 3 5 5 6 5 5 5 5 5 6 6 7 3 2 2 1 1 1
1 2 2 1 3 4 5 7 10 13 13 15 17 14 8 18 21 20 20 19 20 20 8 8 7 4 5 3 5 6 5 6 5 6 6 7 7 2 2 2 1 1 1
2 3 2 4 3 3 3 3 8 7 13 14 15 18 19 19 20 17 17 17 17 18 7 6 5 4 2 2 3 5 5 5 6 5 5 6 4 2 2 2 1 1 2
1 3 1 2 2 2 2 3 3 6 10 9 11 17 18 16 16 18 15 13 5 6 4 6 5 5 5 5 6 6 5 4 4 5 4 4 4 1 2 1 1 1 1
1 2 1 2 3 3 2 3 3 4 7 9 8 9 9 17 19 13 11 2 3 3 4 5 5 5 5 6 6 6 6 4 5 5 4 3 4 2 2 1 1 2 2
3 6 4 2 2 3 3 2 3 3 6 7 7 5 6 4 4 4 3 3 3 3 4 4 4 4 5 5 6 6 6 5 5 5 4 4 5 4 3 2 0 1 0
2 2 2 1 2 2 2 2 2 4 6 6 6 4 18 4 5 4 3 3 2 3 4 5 5 3 3 4 5 5 5 5 6 6 6 5 5 4 4 3 3 3 2
2 2 1 2 2 2 2 2 3 4 3 4 5 4 14 2 2 3 3 3 3 3 3 4 4 4 4 4 4 4 5 5 5 6 6 6 5 5 4 3 3 2 2
2 1 1 2 1 3 2 3 3 3 3 4 4 4 3 2 3 3 3 3 3 4 3 3 4 4 3 4 4 4 4 4 5 5 5 6 5 4 4 3 3 3 2
1 1 1 2 2 2 2 3 3 5 4 4 4 4 3 3 3 4 4 3 3 4 4 3 3 5 4 4 3 3 3 4 2 3 4 4 4 4 3 2 2 3 2
2 1 1 2 3 3 3 3 4 4 4 4 4 3 3 4 4 4 4 4 3 4 5 4 4 5 6 7 6 6 6 8 6 4 2 3 3 4 2 1 2 1 2
2 2 3 2 3 3 3 4 5 4 4 4 4 4 4 4 4 5 4 4 5 4 5 5 5 7 7 6 7 8 8 9 7 8 4 2 0 1 1 1 1 1 0
Wind_Direction
65 69 68 66 66 66 64 50 56 55 50 55 55 51 41 32 21 23 12 347 304 294 301 293 280 272 270 264 240 239 249 247 271 280 281 268 244 242 245 244 249 255 260
71 77 73 70 66 66 61 52 46 51 40 39 42 49 44 39 27 27 8 358 345 324 309 308 297 295 288 284 276 276 267 261 273 285 288 287 265 236 254 249 248 241 249
72 71 65 65 66 63 58 53 47 50 46 41 39 33 27 27 30 21 8 355 348 333 328 327 313 310 298 290 287 280 278 281 281 282 291 289 286 219 255 252 254 259 258
73 73 67 60 62 61 55 53 47 40 45 35 31 28 20 18 26 15 0 345 334 317 312 301 301 298 297 301 299 291 286 279 278 277 284 290 289 307 255 275 272 236 263
80 70 69 64 59 57 51 45 46 44 37 31 22 17 2 7 3 354 339 319 304 293 278 269 270 287 288 288 294 293 296 290 281 278 281 289 292 287 274 273 259 277 268
78 73 64 61 58 52 47 40 41 34 25 23 14 353 338 340 330 328 326 306 294 283 291 290 285 288 311 308 305 301 292 289 285 282 283 282 288 290 287 285 281 281 287
81 70 63 56 52 40 32 36 31 21 12 353 333 341 332 324 327 327 324 299 300 299 300 311 312 310 312 305 303 304 299 289 280 284 285 282 289 291 291 291 284 282 275
79 66 51 49 41 29 28 26 14 4 340 329 317 311 309 311 328 325 321 301 289 280 290 305 304 310 310 307 303 303 298 286 275 274 270 281 278 284 276 274 279 280 276
76 68 58 53 34 23 24 3 351 346 335 333 321 321 318 318 327 323 326 307 314 318 316 313 312 310 311 314 310 306 300 294 283 270 272 279 287 292 294 297 285 281 283
74 60 45 38 32 16 343 333 323 338 318 325 320 314 299 300 310 322 327 320 318 319 318 314 316 314 314 315 306 301 299 304 298 288 285 284 281 278 282 271 285 283 284
76 56 35 24 3 322 328 338 306 301 291 291 288 284 279 274 290 324 326 320 312 309 311 311 310 304 305 307 308 298 288 302 313 311 306 305 289 277 273 260 254 276 284
49 36 4 343 334 332 326 304 307 302 293 284 287 283 263 255 307 325 323 314 308 307 300 297 300 302 308 313 315 308 307 312 306 306 299 293 293 303 311 318 315 306 342
37 0 317 308 303 308 322 307 315 314 321 306 313 314 315 310 305 298 296 297 295 299 296 293 304 309 309 320 311 316 320 309 305 300 299 303 336 299 304 334 348 17 39
49 276 281 315 333 315 303 301 326 319 321 318 317 315 315 313 306 286 283 303 289 293 304 297 296 298 314 312 316 318 312 313 311 301 300 307 291 313 310 292 338 354 24
239 263 358 20 326 304 288 273 279 248 256 288 297 299 302 300 300 304 311 305 299 300 304 298 293 282 304 300 316 313 313 306 307 302 313 311 319 316 301 323 332 348 56
95 39 7 341 354 344 341 329 324 310 311 306 302 297 290 294 303 309 306 310 309 310 303 293 285 276 278 295 318 316 316 318 321 322 316 319 320 298 290 312 317 52 84
73 3 6 4 345 337 331 315 321 320 317 317 322 316 312 306 307 313 316 314 320 310 280 291 287 288 293 294 309 310 315 319 319 323 319 314 316 311 309 310 360 55 79
30 311 250 259 264 290 286 290 300 311 324 324 324 319 317 329 330 322 323 332 335 340 354 343 345 342 339 339 334 326 319 320 330 327 322 328 320 273 298 285 347 96 92
248 255 240 269 270 262 273 276 270 295 305 309 315 315 4 350 333 351 358 6 318 330 344 341 348 343 339 337 332 323 324 337 347 341 348 334 343 332 292 228 161 148 136
225 229 221 235 284 308 288 283 288 284 302 311 313 320 325 358 359 337 345 351 341 325 339 332 338 344 345 340 337 332 338 356 352 348 353 346 346 1 351 344 331 145 158
221 252 276 288 267 265 276 281 300 306 298 309 309 317 321 9 335 329 329 334 324 322 330 329 324 333 341 338 340 342 348 359 357 349 346 351 347 358 357 3 6 17 80
208 214 227 234 259 296 288 288 272 273 281 302 305 309 331 345 307 303 308 315 312 308 313 320 320 328 340 339 344 343 344 353 355 351 343 342 350 358 350 5 21 27 33
189 203 286 295 276 292 321 301 291 291 280 278 286 297 303 290 287 292 287 297 301 305 296 303 312 317 325 328 336 341 340 345 340 336 337 333 346 354 2 4 4 21 29
230 207 255 275 293 291 278 276 284 280 279 281 290 287 282 278 283 285 280 274 283 292 293 283 286 296 306 309 306 304 304 296 305 316 323 322 336 346 357 4 16 23 37
178 221 270 263 268 260 278 273 273 274 280 279 283 274 273 275 282 280 277 275 270 287 290 291 285 279 286 295 296 296 297 309 291 291 303 336 347 357 356 14 5 12 39
194 221 244 258 267 263 256 262 266 268 271 276 275 275 271 271 266 273 273 273 281 271 281 280 277 280 285 285 283 285 288 292 289 269 220 213 34 347 10 24 7 53 83